Weather History for Louisville Bowman, KY

Change the Weather History Date:

Friday, March 1, 2013

  Actual Average Record
Temperature  
Mean Temperature 36 °F 42 °F  
Max Temperature 38 °F 51 °F 77 °F (1976)
Min Temperature 33 °F 33 °F 9 °F (1980)
Degree Days  
Heating Degree Days 29 23  
Month to date heating degree days 29 23  
Since 1 July heating degree days 3259 3384  
Cooling Degree Days 0 0  
Month to date cooling degree days 0 0  
Year to date cooling degree days 0 0  
Moisture  
Dew Point 31 °F    
Average Humidity 89    
Maximum Humidity 96    
Minimum Humidity 82    
Precipitation  
Precipitation 0.06 in 0.11 in 0.96 in (1963)
Month to date precipitation 0.06 0.11  
Year to date precipitation 6.77 6.67  
Sea Level Pressure  
Sea Level Pressure 30.02 in    
Wind  
Wind Speed 5 mph (NW)    
Max Wind Speed 13 mph    
Max Gust Speed 15 mph    
Visibility 6 miles    
Events Rain , Snow    
T = Trace of Precipitation, MM = Missing Value Source: NWS Daily Summary

Daily Weather History Graph

Daily Weather History Graph

Search for Another Location

Airport:

Trip Planner

Search our weather history database for the weather conditions in past years. The results will help you decide how hot, cold, wet, or windy it might be!

Date:

Astronomy

Mar. 01, 2013 Rise Set
Actual Time 7:14 AM EST 6:36 PM EST
Civil Twilight 6:47 AM EST 7:02 PM EST
Nautical Twilight 6:17 AM EST 7:33 PM EST
Astronomical Twilight 5:46 AM EST 8:03 PM EST
Moon 11:04 PM EST (3/1) 9:04 AM EST (3/1)
Length of Visible Light 12h 15m
Length of Day
11h 22m
Waning Gibbous, 83% of the Moon is Illuminated
Mar 1
Waning Gibbous
Mar 4
Last Quarter
Mar 11
New
Mar 19
First Quarter
Mar 27
Full

Hourly Weather History & Observations

Time (EST) Temp. Windchill Dew Point Humidity Pressure Visibility Wind Dir Wind Speed Gust Speed Precip Events Conditions
12:53 AM 36.0 °F 32.1 °F 33.1 °F 89% 29.99 in 10.0 mi WNW 4.6 mph - N/A   Overcast
1:13 AM 35.6 °F 31.7 °F 32.0 °F 87% 29.98 in 10.0 mi WNW 4.6 mph - N/A   Overcast
1:53 AM 36.0 °F 32.1 °F 32.0 °F 86% 30.00 in 10.0 mi WNW 4.6 mph - N/A   Overcast
2:36 AM 35.6 °F 31.7 °F 32.0 °F 87% 29.98 in 10.0 mi WNW 4.6 mph - N/A   Overcast
2:53 AM 36.0 °F 31.1 °F 32.0 °F 86% 29.99 in 10.0 mi WNW 5.8 mph - N/A   Overcast
3:49 AM 35.6 °F 30.7 °F 30.2 °F 81% 29.97 in 10.0 mi WNW 5.8 mph - N/A   Overcast
3:53 AM 35.1 °F 30.1 °F 30.9 °F 85% 29.98 in 10.0 mi WNW 5.8 mph - N/A   Overcast
4:53 AM 35.1 °F 29.3 °F 30.0 °F 82% 29.99 in 10.0 mi NW 6.9 mph - N/A   Overcast
5:53 AM 35.1 °F 30.1 °F 30.0 °F 82% 30.00 in 10.0 mi NNW 5.8 mph - N/A   Overcast
6:03 AM 35.6 °F 32.8 °F 30.2 °F 81% 29.99 in 10.0 mi NW 3.5 mph - N/A   Overcast
6:53 AM 34.0 °F 29.8 °F 30.0 °F 85% 30.01 in 6.0 mi WNW 4.6 mph - 0.00 in Snow Light Snow
7:11 AM 33.8 °F 28.6 °F 30.2 °F 87% 30.00 in 3.0 mi NW 5.8 mph - 0.00 in Snow Light Snow
7:28 AM 33.8 °F 28.6 °F 30.2 °F 87% 30.00 in 1.8 mi NW 5.8 mph - 0.00 in Snow Light Snow
7:53 AM 33.1 °F 28.7 °F 30.9 °F 92% 30.02 in 2.0 mi WNW 4.6 mph - 0.00 in Snow Light Snow
8:00 AM 33.8 °F 29.6 °F 30.2 °F 87% 30.01 in 1.8 mi WNW 4.6 mph - 0.00 in Snow Light Snow
8:17 AM 33.8 °F 29.6 °F 30.2 °F 87% 30.02 in 2.0 mi WNW 4.6 mph - 0.00 in Snow Light Snow
8:21 AM 33.8 °F 29.6 °F 30.2 °F 87% 30.02 in 1.8 mi WNW 4.6 mph - 0.00 in Snow Light Snow
8:28 AM 33.8 °F 29.6 °F 30.2 °F 87% 30.02 in 1.5 mi WNW 4.6 mph - 0.00 in Snow Light Snow
8:53 AM 33.8 °F 29.6 °F 30.2 °F 87% 30.02 in 1.0 mi WNW 4.6 mph - N/A Snow Light Snow
9:49 AM 33.8 °F 26.4 °F 30.2 °F 87% 30.03 in 1.5 mi NW 9.2 mph - 0.01 in Snow Light Snow
9:53 AM 34.0 °F 28.0 °F 30.9 °F 89% 30.04 in 1.5 mi NW 6.9 mph - 0.01 in Snow Light Snow
10:15 AM 33.8 °F 27.7 °F 30.2 °F 87% 30.03 in 2.5 mi NW 6.9 mph - 0.00 in Snow Light Snow
10:23 AM 35.6 °F 30.7 °F 32.0 °F 87% 30.03 in 4.0 mi NW 5.8 mph - 0.00 in Snow Light Snow
10:40 AM 35.6 °F 30.7 °F 30.2 °F 81% 30.03 in 2.5 mi NNW 5.8 mph - 0.00 in Snow Light Snow
10:53 AM 35.1 °F 30.1 °F 30.9 °F 85% 30.04 in 4.0 mi NW 5.8 mph - 0.00 in Snow Light Snow
11:05 AM 35.6 °F 29.9 °F 30.2 °F 81% 30.03 in 8.0 mi WNW 6.9 mph - 0.00 in   Overcast
11:53 AM 35.1 °F 30.1 °F 30.0 °F 82% 30.04 in 5.0 mi NW 5.8 mph - 0.00 in Snow Light Snow
12:03 PM 35.6 °F 30.7 °F 30.2 °F 81% 30.03 in 8.0 mi WNW 5.8 mph - 0.00 in Snow Light Snow
12:34 PM 37.4 °F 32.8 °F 32.0 °F 81% 30.02 in 10.0 mi Variable 5.8 mph - 0.00 in   Overcast
12:53 PM 37.0 °F 34.5 °F 32.0 °F 82% 30.03 in 10.0 mi WNW 3.5 mph - 0.00 in   Overcast
1:53 PM 37.4 °F 30.8 °F 30.2 °F 75% 30.01 in 7.0 mi WNW 9.2 mph - N/A Snow Light Snow
2:12 PM 37.4 °F 32.1 °F 30.2 °F 75% 30.00 in 10.0 mi WNW 6.9 mph - 0.00 in   Overcast
2:53 PM 37.0 °F 31.6 °F 32.0 °F 82% 30.01 in 8.0 mi NNW 6.9 mph - 0.00 in   Overcast
3:24 PM 35.6 °F 29.9 °F 32.0 °F 87% 30.00 in 2.5 mi WNW 6.9 mph - 0.00 in Snow Light Snow
3:37 PM 35.6 °F 31.7 °F 33.8 °F 93% 30.00 in 7.0 mi NW 4.6 mph - 0.01 in Rain Light Rain
3:41 PM 35.6 °F 30.7 °F 33.8 °F 93% 30.00 in 8.0 mi NW 5.8 mph - 0.01 in Rain Light Rain
3:53 PM 37.0 °F 32.4 °F 32.0 °F 82% 30.01 in 10.0 mi WNW 5.8 mph - 0.01 in Rain Light Rain
4:08 PM 37.4 °F 32.8 °F 32.0 °F 81% 30.00 in 10.0 mi NNW 5.8 mph - 0.00 in Rain Light Rain
4:40 PM 35.6 °F 29.2 °F 32.0 °F 87% 30.00 in 5.0 mi NNW 8.1 mph - 0.00 in Snow Light Snow
4:53 PM 35.1 °F 30.1 °F 32.0 °F 89% 30.02 in 5.0 mi NW 5.8 mph - 0.00 in Snow Light Snow
5:02 PM 35.6 °F 31.7 °F 32.0 °F 87% 30.01 in 8.0 mi NNW 4.6 mph - 0.00 in   Overcast
5:53 PM 35.1 °F 31.0 °F 32.0 °F 89% 30.03 in 9.0 mi NW 4.6 mph - 0.00 in Rain Light Rain
6:11 PM 35.6 °F 29.9 °F 32.0 °F 87% 30.02 in 4.0 mi NNW 6.9 mph - 0.00 in Snow Light Snow
6:18 PM 33.8 °F 28.6 °F 30.2 °F 87% 30.02 in 5.0 mi NNW 5.8 mph - 0.00 in Snow Light Snow
6:53 PM 34.0 °F 29.8 °F 32.0 °F 92% 30.04 in 8.0 mi NW 4.6 mph - 0.00 in   Overcast
7:28 PM 33.8 °F 30.8 °F 32.0 °F 93% 30.04 in 6.0 mi NW 3.5 mph - 0.01 in   Overcast
7:37 PM 33.8 °F 28.6 °F 32.0 °F 93% 30.04 in 5.0 mi WNW 5.8 mph - 0.01 in Snow Light Snow
7:53 PM 34.0 °F 29.8 °F 32.0 °F 92% 30.05 in 5.0 mi WNW 4.6 mph - 0.01 in Snow Light Snow
8:53 PM 34.0 °F 29.8 °F 32.0 °F 92% 30.05 in 6.0 mi WNW 4.6 mph - 0.00 in Snow Light Snow
9:09 PM 33.8 °F 29.6 °F 32.0 °F 93% 30.04 in 6.0 mi WNW 4.6 mph - 0.00 in   Overcast
9:16 PM 33.8 °F 28.6 °F 32.0 °F 93% 30.04 in 6.0 mi WNW 5.8 mph - 0.00 in Snow Light Snow
9:27 PM 33.8 °F 29.6 °F 32.0 °F 93% 30.04 in 5.0 mi WNW 4.6 mph - 0.00 in Snow Light Snow
9:53 PM 34.0 °F 31.0 °F 32.0 °F 92% 30.05 in 5.0 mi NW 3.5 mph - 0.00 in Snow Light Snow
9:59 PM 33.8 °F 29.6 °F 32.0 °F 93% 30.04 in 4.0 mi WNW 4.6 mph - 0.00 in Snow Light Snow
10:32 PM 33.8 °F - 32.0 °F 93% 30.04 in 3.0 mi Calm Calm - 0.01 in Snow Light Snow
10:40 PM 33.8 °F 30.8 °F 32.0 °F 93% 30.04 in 2.5 mi NNE 3.5 mph - 0.01 in Snow Light Snow
10:48 PM 33.8 °F 30.8 °F 32.0 °F 93% 30.04 in 1.2 mi North 3.5 mph - 0.02 in Snow Light Snow
10:53 PM 33.1 °F 30.0 °F 30.9 °F 92% 30.06 in 2.0 mi North 3.5 mph - 0.02 in Snow Light Snow
10:55 PM 33.8 °F 30.8 °F 30.2 °F 87% 30.04 in 3.0 mi North 3.5 mph - 0.00 in Snow Light Snow
11:40 PM 33.8 °F 29.6 °F 30.2 °F 87% 30.04 in 3.0 mi North 4.6 mph - 0.00 in Snow Light Snow
11:49 PM 33.8 °F 29.6 °F 30.2 °F 87% 30.04 in 3.0 mi North 4.6 mph - 0.00 in Snow Light Snow
11:53 PM 33.1 °F 30.0 °F 30.9 °F 92% 30.06 in 3.0 mi Variable 3.5 mph - 0.00 in Snow Light Snow